• MPC Preparation (Info)

  • MPEC 2022-S237 : 2022 SV9

    The following Minor Planet Electronic Circular may be linked-to from your own Web pages, but must not otherwise be redistributed electronically.

    A form allowing access to any MPEC is at the bottom of this page.


    Read MPEC 2022-S236 Read MPEC 2022-S238


    M.P.E.C. 2022-S237                           Issued 2022 September 25, 20:30 UT
    
         The Minor Planet Electronic Circulars contain information on unusual
             minor planets and routine data on comets.  They are published
        on behalf of Division F of the International Astronomical Union by the
              Minor Planet Center, Smithsonian Astrophysical Observatory,
                              Cambridge, MA 02138, U.S.A.
    
                 Prepared using the Tamkin Foundation Computer Network
    
                                  MPC@CFA.HARVARD.EDU
                URL https://www.minorplanetcenter.net/    ISSN 1523-6714
    
                                    2022 SV9                                 
    
    
    Observations:
         K22S09V* C2022 09 22.55818203 34 40.944-26 27 16.42         20.87wUES237F52
         K22S09V  C2022 09 22.56900503 34 40.199-26 26 34.27         21.61wUES237F52
         K22S09V  C2022 09 22.57981103 34 39.451-26 25 52.14         21.69wUES237F52
         K22S09V  C2022 09 22.63280203 34 35.806-26 22 22.97         20.33GVES237F52
         K22S09V  C2022 09 22.63343203 34 35.766-26 22 20.50         20.04GVES237F52
         K22S09V |C2022 09 23.27160 03 34 17.14 -25 40 14.6          20.8 VuES237807
         K22S09V |C2022 09 23.27814 03 34 16.75 -25 39 50.5          20.4 VuES237807
         K22S09V |C2022 09 23.28468 03 34 16.34 -25 39 25.6          20.7 VuES237807
         K22S09V KC2022 09 23.41429503 34 10.996-25 32 27.85         20.17GVES237I52
         K22S09V KC2022 09 23.41601703 34 10.884-25 32 21.52         20.32GVES237I52
         K22S09V KC2022 09 23.41773303 34 10.762-25 32 14.93         20.18GVES237I52
         K22S09V KC2022 09 23.41945603 34 10.693-25 32 08.27         20.00GVES237I52
         K22S09V  C2022 09 23.57836503 34 03.733-25 21 59.28         21.54GVES237F52
         K22S09V  C2022 09 23.57916803 34 03.674-25 21 56.38         22.50GVES237F52
         K22S09V  C2022 09 25.58060703 32 42.140-23 21 07.44         21.42GVES237F51
         K22S09V  C2022 09 25.58127603 32 42.086-23 21 05.60         21.20GVES237F51
    
    Observer details:
    807 Cerro Tololo Observatory, La Serena.  Observers T. Linder, R. Holmes, L.
        Horn.  0.61-m f/6.5 Dall-Kirkham Astrograph + CCD.
    F51 Pan-STARRS 1, Haleakala.  Observers J. Bulger, K. Chambers, T. Lowe, A.
        Schultz, I. Smith.  Measurers S. Chastel, J. Fairlamb, M. Huber, Y.
        Ramanjooloo, R. Wainscoat, R. Weryk.  1.8-m Ritchey-Chretien + CCD.
    F52 Pan-STARRS 2, Haleakala.  Observers J. Bulger, T. Lowe, A. Schultz, I.
        Smith, K. Chambers, T. Dukes.  Measurers K. Chambers, S. Chastel, T. de
        Boer, J. Fairlamb, H. Gao, M. Huber, C.-C. Lin, E. Magnier, Y.
        Ramanjooloo, R. Wainscoat, R. Weryk.  1.8-m Ritchey-Chretien + CCD.
    I52 Steward Observatory, Mt. Lemmon Station.  Observer R. A. Kowalski.
        Measurers E. J. Christensen, D. Fay, J. B. Fazekas, D. C. Fuls, A. R.
        Gibbs, A. D. Grauer, H. Groeller, J. K. Hogan, R. A. Kowalski, S. M.
        Larson, G. J. Leonard, D. Rankin, R. L. Seaman, A. Serrano, F. C. Shelly,
        K. W. Wierzchos.  1.0-m prime focus + CCD.
    
    Orbital elements:
    2022 SV9                                                 Earth MOID = 0.0577 AU
    Epoch 2022 Aug. 9.0 TT = JDT 2459800.5                  Veres                   
    M 351.89257              (2000.0)            P               Q                  
    n   0.41123833     Peri.  239.14542     +0.90248716     +0.42476529             
    a   1.7909096      Node    95.63560     -0.36663454     +0.84454145             
    e   0.4250469      Incl.    4.11166     -0.22604432     +0.32607391             
    P   2.40           H   23.75          G   0.15           U   8                  
    Residuals in seconds of arc
    220922 F52  0.0   0.0     220923 807  0.3-  0.2-    220923 F52  0.1+  0.0
    220922 F52  0.1+  0.0     220923 807  0.0   0.3+    220923 F52  0.1+  0.1-
    220922 F52  0.1+  0.1-    220923 I52  0.0   0.1-    220925 F51  0.0   0.3+
    220922 F52  0.0   0.0     220923 I52  0.0   0.2-    220925 F51  0.0   0.2-
    220922 F52  0.1+  0.0     220923 I52  0.0   0.0
    220923 807  0.8-  0.1+    220923 I52  0.6+  0.2+
    
    Ephemeris:
    2022 SV9                 a,e,i = 1.79, 0.43, 4                   q = 1.0297
    Date    TT    R. A. (2000) Decl.     Delta      r    Elong.  Phase     V
    2022 08 26    02 04 30.8 -80 52 54   0.06531 1.0301   105.5    71.0    20.4
    ...
    2022 09 10    03 35 58.6 -44 33 24   0.08145 1.0386   110.6    65.2    20.7
    ...
    2022 09 18    03 36 36.1 -31 53 47   0.09838 1.0536   117.2    58.1    20.9
    ...
    2022 09 24    03 33 47.7 -24 54 53   0.1131  1.0693   123.1    51.9    21.1
    2022 09 25    03 33 07.4 -23 54 24   0.1156  1.0722   124.1    50.8    21.1
    2022 09 26    03 32 23.9 -22 56 09   0.1183  1.0753   125.2    49.7    21.1
    ...
    2022 10 02    03 27 06.7 -17 46 38   0.1348  1.0955   131.8    43.0    21.3
    ...
    2022 10 10    03 18 14.3 -12 14 09   0.1595  1.1271   141.0    33.9    21.4
    ...
    2022 10 25    02 59 19.4 -04 25 47   0.2170  1.1978   157.4    18.6    21.8
    
    M. P. C. Staff               (C) Copyright 2022 MPC           M.P.E.C. 2022-S237
    


    Read MPEC 2022-S236 Read MPEC 2022-S238


    MPEC number:

    Enter an MPEC number in one of the following forms:

    • 1997-B01 (the full form)
    • J97B01 (the packed version of the full form)
    • B01 (the abbreviated form)